When you browse on this site, cookies collect data to enhance your experience and personalize the content and advertising you see.
Visit our Privacy Policy to learn more. By continuing to use the site, you agree to this use of cookies and data.
  • în România
  • Lista ţărilor
  • Pe 7 zile
  • Temperatura apei
  • Hartă satelitară
  • Meteo pe hartă
  • Widget-uri
  • user-avatar
    Intrare

    Meteo pe oră la Juigalpa

    Astăzi, 20 Iulie, Sâmbătă

    Timp Temperatura Precipitaţii Vânt Presiune Umiditate
    00:00 +27°C° 0 mm 5 m/s 750 mmHg 88%
    01:00 +27°C° 0 mm 5 m/s 750 mmHg 89%
    02:00 +27°C° 0 mm 5 m/s 749 mmHg 90%
    03:00 +27°C° 0 mm 5 m/s 749 mmHg 90%
    04:00 +27°C° 0 mm 5 m/s 749 mmHg 90%
    05:00 +27°C° 0 mm 4 m/s 749 mmHg 91%
    06:00 +27°C° 0 mm 4 m/s 750 mmHg 91%
    07:00 +28°C° 0.1 mm 5 m/s 750 mmHg 85%
    08:00 +29°C° 0.1 mm 6 m/s 750 mmHg 80%
    09:00 +32°C° 0.1 mm 7 m/s 751 mmHg 74%
    10:00 +32°C° 0.1 mm 7 m/s 750 mmHg 72%
    11:00 +33°C° 0.1 mm 8 m/s 750 mmHg 70%
    12:00 +34°C° 0.1 mm 8 m/s 750 mmHg 69%
    13:00 +33°C° 0.2 mm 8 m/s 749 mmHg 70%
    14:00 +33°C° 0.2 mm 8 m/s 749 mmHg 71%
    15:00 +33°C° 0.2 mm 8 m/s 748 mmHg 73%
    16:00 +32°C° 0 mm 7 m/s 749 mmHg 77%
    17:00 +29°C° 0 mm 6 m/s 749 mmHg 80%
    18:00 +28°C° 0 mm 5 m/s 749 mmHg 84%
    19:00 +28°C° 0 mm 5 m/s 749 mmHg 86%
    20:00 +28°C° 0 mm 5 m/s 750 mmHg 87%
    21:00 +27°C° 0 mm 5 m/s 750 mmHg 88%
    22:00 +27°C° 0 mm 4 m/s 750 mmHg 89%
    23:00 +27°C° 0 mm 4 m/s 750 mmHg 90%

    Mâine, 21 Iulie, Duminică

    Timp Temperatura Precipitaţii Vânt Presiune Umiditate
    00:00 +27°C° 0 mm 4 m/s 750 mmHg 90%
    01:00 +27°C° 0 mm 4 m/s 749 mmHg 91%
    02:00 +27°C° 0 mm 4 m/s 749 mmHg 91%
    03:00 +26°C° 0 mm 4 m/s 749 mmHg 91%
    04:00 +27°C° 0 mm 4 m/s 749 mmHg 91%
    05:00 +27°C° 0 mm 4 m/s 749 mmHg 91%
    06:00 +27°C° 0 mm 5 m/s 750 mmHg 90%
    07:00 +28°C° 0 mm 6 m/s 750 mmHg 84%
    08:00 +30°C° 0 mm 6 m/s 750 mmHg 78%
    09:00 +32°C° 0 mm 7 m/s 751 mmHg 72%
    10:00 +32°C° 0.2 mm 8 m/s 750 mmHg 71%
    11:00 +33°C° 0.2 mm 8 m/s 750 mmHg 70%
    12:00 +33°C° 0.2 mm 8 m/s 750 mmHg 70%
    13:00 +33°C° 0.7 mm 8 m/s 749 mmHg 71%
    14:00 +33°C° 0.7 mm 7 m/s 749 mmHg 72%
    15:00 +33°C° 0.7 mm 7 m/s 748 mmHg 73%
    16:00 +32°C° 0.4 mm 6 m/s 749 mmHg 77%
    17:00 +30°C° 0.4 mm 6 m/s 749 mmHg 80%
    18:00 +29°C° 0.4 mm 5 m/s 749 mmHg 84%
    19:00 +28°C° 0 mm 5 m/s 750 mmHg 83%
    20:00 +28°C° 0 mm 6 m/s 751 mmHg 81%
    21:00 +28°C° 0 mm 6 m/s 751 mmHg 79%
    22:00 +27°C° 0 mm 5 m/s 751 mmHg 82%
    23:00 +27°C° 0 mm 5 m/s 751 mmHg 85%

    Poimâine, 22 Iulie, Luni

    Timp Temperatura Precipitaţii Vânt Presiune Umiditate
    00:00 +26°C° 0 mm 4 m/s 751 mmHg 88%
    01:00 +26°C° 0 mm 4 m/s 750 mmHg 87%
    02:00 +26°C° 0 mm 4 m/s 750 mmHg 87%
    03:00 +26°C° 0 mm 4 m/s 750 mmHg 86%
    04:00 +26°C° 0 mm 4 m/s 750 mmHg 86%
    05:00 +26°C° 0 mm 5 m/s 750 mmHg 86%
    06:00 +26°C° 0 mm 5 m/s 750 mmHg 86%
    07:00 +28°C° 0 mm 6 m/s 751 mmHg 82%
    08:00 +29°C° 0 mm 6 m/s 751 mmHg 77%
    09:00 +30°C° 0 mm 7 m/s 752 mmHg 73%
    10:00 +32°C° 0 mm 7 m/s 751 mmHg 70%
    11:00 +33°C° 0 mm 7 m/s 751 mmHg 68%
    12:00 +34°C° 0 mm 7 m/s 751 mmHg 65%
    13:00 +34°C° 0.2 mm 7 m/s 750 mmHg 66%
    14:00 +33°C° 0.2 mm 7 m/s 750 mmHg 67%
    15:00 +33°C° 0.2 mm 7 m/s 749 mmHg 68%
    16:00 +32°C° 0 mm 6 m/s 750 mmHg 72%
    17:00 +30°C° 0 mm 5 m/s 750 mmHg 75%
    18:00 +29°C° 0 mm 5 m/s 750 mmHg 79%
    19:00 +28°C° 0 mm 4 m/s 751 mmHg 81%
    20:00 +27°C° 0 mm 4 m/s 752 mmHg 83%
    21:00 +26°C° 0 mm 4 m/s 752 mmHg 84%
    22:00 +26°C° 0 mm 4 m/s 752 mmHg 86%
    23:00 +26°C° 0 mm 3 m/s 752 mmHg 89%

    23 Iulie, Marţi

    Timp Temperatura Precipitaţii Vânt Presiune Umiditate
    00:00 +25°C° 0 mm 3 m/s 752 mmHg 91%
    01:00 +25°C° 0 mm 3 m/s 751 mmHg 91%
    02:00 +25°C° 0 mm 3 m/s 751 mmHg 92%
    03:00 +25°C° 0 mm 3 m/s 750 mmHg 92%
    04:00 +25°C° 0 mm 3 m/s 751 mmHg 91%
    05:00 +25°C° 0 mm 3 m/s 751 mmHg 91%
    06:00 +25°C° 0 mm 3 m/s 751 mmHg 90%
    07:00 +27°C° 0 mm 4 m/s 751 mmHg 84%
    08:00 +29°C° 0 mm 5 m/s 752 mmHg 77%
    09:00 +30°C° 0 mm 6 m/s 752 mmHg 71%
    10:00 +32°C° 0.1 mm 5 m/s 752 mmHg 69%
    11:00 +33°C° 0.1 mm 5 m/s 751 mmHg 67%
    12:00 +33°C° 0.1 mm 5 m/s 751 mmHg 65%
    13:00 +34°C° 0.1 mm 5 m/s 750 mmHg 64%
    14:00 +34°C° 0.1 mm 5 m/s 750 mmHg 64%
    15:00 +34°C° 0.1 mm 5 m/s 749 mmHg 63%
    16:00 +32°C° 0 mm 4 m/s 750 mmHg 68%
    17:00 +30°C° 0 mm 4 m/s 750 mmHg 73%
    18:00 +29°C° 0 mm 4 m/s 750 mmHg 78%
    19:00 +28°C° 0 mm 3 m/s 751 mmHg 81%
    20:00 +27°C° 0 mm 3 m/s 751 mmHg 83%
    21:00 +26°C° 0 mm 3 m/s 752 mmHg 86%
    22:00 +26°C° 0 mm 3 m/s 752 mmHg 88%
    23:00 +25°C° 0 mm 3 m/s 752 mmHg 90%

    24 Iulie, Miercuri

    Timp Temperatura Precipitaţii Vânt Presiune Umiditate
    00:00 +25°C° 0 mm 3 m/s 752 mmHg 92%
    01:00 +25°C° 0 mm 3 m/s 751 mmHg 92%
    02:00 +25°C° 0 mm 3 m/s 751 mmHg 91%
    03:00 +24°C° 0 mm 3 m/s 750 mmHg 91%
    04:00 +25°C° 0 mm 3 m/s 751 mmHg 91%
    05:00 +25°C° 0 mm 3 m/s 751 mmHg 90%
    06:00 +25°C° 0 mm 3 m/s 751 mmHg 90%
    07:00 +27°C° 0 mm 4 m/s 751 mmHg 84%
    08:00 +28°C° 0 mm 5 m/s 751 mmHg 78%
    09:00 +30°C° 0 mm 6 m/s 752 mmHg 72%
    10:00 +32°C° 0.5 mm 5 m/s 751 mmHg 71%
    11:00 +33°C° 0.5 mm 5 m/s 750 mmHg 69%
    12:00 +33°C° 0.5 mm 5 m/s 750 mmHg 68%
    13:00 +33°C° 2.6 mm 6 m/s 749 mmHg 71%
    14:00 +33°C° 2.6 mm 6 m/s 749 mmHg 74%
    15:00 +32°C° 2.6 mm 6 m/s 748 mmHg 76%
    16:00 +30°C° 1.5 mm 6 m/s 749 mmHg 80%
    17:00 +29°C° 1.5 mm 5 m/s 749 mmHg 83%
    18:00 +28°C° 1.5 mm 5 m/s 749 mmHg 87%
    19:00 +28°C° 0.8 mm 5 m/s 750 mmHg 88%
    20:00 +27°C° 0.8 mm 5 m/s 751 mmHg 89%
    21:00 +27°C° 0.8 mm 5 m/s 751 mmHg 90%
    22:00 +27°C° 0.2 mm 4 m/s 751 mmHg 90%
    23:00 +26°C° 0.2 mm 4 m/s 751 mmHg 90%

    25 Iulie, Joi

    Timp Temperatura Precipitaţii Vânt Presiune Umiditate
    00:00 +26°C° 0.2 mm 4 m/s 750 mmHg 90%
    01:00 +26°C° 0.2 mm 3 m/s 750 mmHg 91%
    02:00 +26°C° 0.2 mm 3 m/s 750 mmHg 92%
    03:00 +26°C° 0.2 mm 3 m/s 750 mmHg 92%
    04:00 +26°C° 0 mm 3 m/s 750 mmHg 92%
    05:00 +26°C° 0 mm 4 m/s 750 mmHg 92%
    06:00 +26°C° 0 mm 4 m/s 751 mmHg 92%
    07:00 +27°C° 0.1 mm 5 m/s 751 mmHg 87%
    08:00 +28°C° 0.1 mm 6 m/s 751 mmHg 82%
    09:00 +30°C° 0.1 mm 7 m/s 752 mmHg 76%
    10:00 +30°C° 0.3 mm 7 m/s 751 mmHg 76%
    11:00 +30°C° 0.3 mm 7 m/s 751 mmHg 75%
    12:00 +32°C° 0.3 mm 7 m/s 751 mmHg 75%
    13:00 +30°C° 0.1 mm 7 m/s 750 mmHg 75%
    14:00 +30°C° 0.1 mm 7 m/s 750 mmHg 75%
    15:00 +30°C° 0.1 mm 7 m/s 749 mmHg 75%
    16:00 +29°C° 0 mm 6 m/s 749 mmHg 77%
    17:00 +28°C° 0 mm 6 m/s 750 mmHg 79%
    18:00 +28°C° 0 mm 5 m/s 750 mmHg 81%
    19:00 +27°C° 0 mm 5 m/s 750 mmHg 83%
    20:00 +27°C° 0 mm 5 m/s 751 mmHg 84%
    21:00 +26°C° 0 mm 5 m/s 751 mmHg 86%
    22:00 +26°C° 0 mm 5 m/s 751 mmHg 86%
    23:00 +26°C° 0 mm 5 m/s 751 mmHg 87%
    Arată mai mult